Theta_e
316 315 316 317 319 320 324 325 323 323 322 318 317 318 319 322 323 322 322 322 323 324 326 327 329 329 326 327 325 324 325 327 328 330 334 334 333 333 332 334 335 331 332 336 332 327 331 335 335 334 334 329 322 317 315 312 312 311 311 313 319 326 327 324 328 329 328 330 329 330 327 323 321 317 313 314 319 323 323 321 319 318 318 315 313 313 314 312 311 312 311 312 311 311 311 311 311
316 315 316 318 319 321 325 324 322 320 318 316 317 319 320 321 321 321 322 323 324 324 325 327 329 328 325 324 323 325 325 328 333 335 335 333 335 334 330 333 334 330 333 334 328 330 335 336 335 334 333 328 321 317 316 313 312 312 311 312 318 326 328 327 327 327 329 330 330 330 328 324 323 320 319 322 324 327 326 326 325 325 326 322 315 312 313 314 313 313 312 311 311 310 311 311 311
315 315 317 319 320 322 325 323 320 318 316 315 316 320 320 320 321 321 323 324 326 325 326 329 329 328 325 324 324 324 327 330 335 336 333 334 337 333 331 335 335 334 333 330 329 334 337 335 334 333 332 326 320 318 316 314 313 312 312 314 321 326 327 328 327 327 328 328 329 328 328 326 324 323 322 325 327 328 328 328 328 327 327 326 321 311 311 316 314 314 315 314 312 310 310 310 311
315 316 318 322 324 322 324 323 321 319 316 315 316 319 320 320 321 322 325 325 326 326 327 328 328 328 325 326 324 323 329 332 335 335 332 336 337 331 333 337 336 337 334 329 333 337 337 335 332 331 329 323 319 318 317 315 313 313 312 315 322 326 326 327 327 328 329 329 329 325 326 325 324 326 322 323 327 326 324 326 325 324 326 325 319 309 311 316 312 313 316 314 312 310 310 311 311
314 316 318 323 327 324 323 323 322 320 318 317 317 319 320 321 321 323 324 323 324 326 327 326 328 328 326 326 325 327 331 330 333 334 334 337 335 329 334 337 336 338 333 329 336 337 335 333 330 329 326 321 320 318 317 316 314 313 313 314 318 323 325 326 327 328 329 330 330 324 323 323 324 325 320 320 325 325 324 325 325 325 325 321 317 310 311 314 310 309 312 312 310 310 311 311 312
316 317 318 322 325 324 323 320 319 319 320 320 319 319 320 321 322 323 324 323 322 324 325 327 327 327 327 327 325 328 331 332 332 334 338 336 331 330 335 336 336 337 332 332 337 337 333 332 330 327 324 322 320 318 317 316 314 314 313 313 315 317 320 325 327 327 328 329 330 325 322 320 319 319 318 321 324 326 327 326 327 326 323 321 319 316 316 317 314 312 309 310 310 310 311 311 312
319 321 320 320 322 323 322 320 319 320 320 320 320 319 319 321 322 323 323 322 321 321 323 326 326 325 327 326 326 326 327 334 333 335 338 332 327 331 334 336 336 336 333 335 338 335 332 332 329 326 323 321 320 318 318 316 314 313 313 313 314 313 317 324 325 325 327 327 326 321 317 315 315 313 316 320 320 324 326 325 325 323 319 319 319 320 323 323 321 319 312 310 311 311 312 312 313
319 323 322 323 323 322 322 321 322 321 320 319 319 319 320 321 322 323 322 322 321 321 323 324 324 324 324 324 329 328 322 327 333 334 334 330 329 333 335 336 336 335 334 336 338 335 332 331 329 326 323 321 320 319 319 317 315 314 313 313 314 314 315 320 320 321 322 320 318 313 311 311 313 313 316 318 317 321 322 322 323 321 319 320 321 323 324 322 322 321 316 312 311 312 312 313 314
320 322 322 323 323 322 321 321 321 320 320 319 318 318 319 321 322 322 321 322 321 321 323 323 323 322 322 322 328 330 323 322 328 331 332 331 331 334 336 336 336 334 334 337 338 334 331 331 329 326 323 322 321 320 319 319 317 315 314 313 314 314 314 315 315 315 314 312 311 309 308 309 310 312 314 313 314 320 320 319 321 322 322 323 321 320 319 319 320 320 318 314 313 314 313 314 316
320 321 321 323 322 320 318 320 320 320 320 319 319 319 319 321 322 323 321 322 321 321 323 323 322 320 321 322 326 331 328 322 324 329 331 333 333 335 336 336 336 335 334 336 336 333 331 331 329 327 324 322 322 320 320 320 319 317 315 314 315 315 315 315 314 313 311 309 308 306 306 307 308 308 310 310 313 320 322 323 323 323 323 321 317 314 314 314 316 317 317 316 315 316 315 316 317
320 321 322 322 320 318 318 319 319 320 320 319 319 319 319 320 322 323 321 321 320 321 322 321 321 320 320 321 328 329 325 323 325 328 331 334 334 335 336 336 336 335 335 335 336 335 331 331 329 326 324 322 322 321 321 320 320 320 317 316 316 316 316 316 315 314 313 311 308 307 307 307 307 307 309 312 315 318 322 323 322 322 321 317 314 314 314 313 313 314 314 315 315 315 316 317 318
322 321 321 320 319 319 319 319 319 320 320 319 319 319 319 320 321 322 321 320 319 320 320 320 320 320 320 321 328 324 320 326 327 327 331 333 335 335 336 335 336 335 335 335 336 335 331 331 330 327 324 323 322 322 321 321 321 321 320 319 317 317 317 317 316 315 314 312 311 309 308 307 307 308 312 316 319 320 320 320 320 320 319 318 318 316 315 314 314 313 313 313 314 314 315 316 319
321 322 321 319 321 321 321 320 320 320 320 320 320 319 318 320 321 321 321 320 319 319 320 320 319 320 320 323 328 323 323 328 328 327 331 333 335 335 335 336 336 336 336 334 334 335 332 332 332 329 326 324 323 322 321 321 321 322 322 321 320 319 318 318 318 317 316 314 313 312 311 310 310 311 315 318 320 321 321 320 321 321 321 321 320 319 318 316 315 315 313 312 313 314 314 315 317
321 323 322 321 323 322 321 320 320 318 319 321 320 319 318 320 320 320 320 319 319 319 320 319 319 320 319 322 325 325 329 330 328 328 330 333 335 334 335 336 335 335 335 333 332 335 334 333 332 331 328 326 325 323 322 322 321 322 322 322 322 321 320 320 319 318 317 316 315 314 313 313 313 314 317 319 320 321 322 321 322 322 322 322 322 322 321 320 319 317 315 313 313 313 314 313 314
321 323 322 322 321 321 321 321 320 318 318 320 319 318 319 319 319 319 320 318 319 318 318 318 319 320 317 322 325 329 331 327 327 329 330 333 334 334 335 335 335 335 334 333 333 335 335 334 333 331 329 329 329 326 324 323 322 321 322 322 322 322 322 321 320 320 319 318 316 316 316 315 316 316 318 320 320 321 322 322 322 322 322 323 323 323 322 322 322 320 318 315 313 313 314 313 312
319 322 322 321 320 319 321 320 320 318 319 320 318 319 318 318 317 318 319 318 318 317 318 318 318 320 319 323 327 333 332 324 325 329 331 334 334 334 334 334 335 335 334 333 334 334 334 335 334 333 330 330 333 331 329 327 324 322 321 322 323 323 323 323 322 321 320 319 318 317 317 317 317 318 318 320 321 322 322 322 322 323 323 323 323 323 323 323 323 322 321 319 316 314 314 314 312
317 322 322 320 320 320 320 320 319 317 319 320 317 319 319 318 317 317 317 317 318 316 317 318 317 318 319 319 320 329 328 321 324 330 332 334 334 334 334 334 335 334 334 333 334 333 334 335 334 334 332 331 333 334 333 331 328 325 323 322 322 322 323 323 323 322 322 321 320 319 318 318 318 318 319 320 320 321 322 322 322 323 322 322 322 323 323 323 323 323 323 322 319 315 314 314 313
318 321 320 319 321 321 321 320 319 318 319 319 318 319 319 318 317 316 317 317 318 317 317 317 317 317 317 317 316 320 319 318 326 330 332 333 334 334 334 334 334 334 333 332 333 333 334 335 334 334 333 332 333 333 334 333 331 328 327 326 323 322 322 322 323 323 323 323 322 321 320 319 318 318 319 319 320 320 321 321 321 322 322 322 322 322 322 323 322 323 323 323 322 318 316 315 314
319 321 319 320 322 321 321 320 319 319 319 319 319 319 319 319 318 317 317 317 317 316 317 317 317 318 316 316 317 317 315 318 327 330 332 332 333 334 334 335 334 334 333 331 331 331 333 335 334 335 334 333 332 332 333 334 333 330 330 331 328 324 321 321 322 322 323 324 323 323 322 320 320 319 319 319 319 319 320 320 321 321 321 321 321 322 322 322 321 322 322 322 322 322 319 317 316
320 321 321 321 322 320 320 319 319 318 319 319 319 319 319 319 318 317 317 318 318 316 317 317 317 319 318 315 316 317 316 318 325 331 332 331 332 334 335 334 334 334 333 331 330 330 332 333 334 334 333 332 331 332 332 333 333 332 331 333 332 329 325 321 321 322 322 324 324 323 323 322 322 321 321 321 320 320 320 319 320 320 320 320 321 321 321 321 321 321 321 321 322 323 322 320 319
319 320 320 321 321 319 319 318 318 317 318 319 319 318 319 317 317 317 317 317 317 317 318 318 317 318 319 316 315 316 316 316 321 329 332 333 333 335 336 335 334 334 334 332 331 330 330 332 333 334 333 331 331 332 331 332 333 333 332 333 333 332 330 326 324 323 322 323 323 324 324 323 323 323 323 322 322 322 321 320 320 319 320 320 320 320 320 320 320 320 321 321 321 322 322 322 321
318 318 319 321 321 319 318 317 316 316 316 318 318 318 318 317 316 317 317 317 317 317 317 318 317 318 319 316 315 316 316 315 316 322 329 333 333 334 337 336 335 335 334 334 332 330 328 330 331 332 333 331 331 332 332 332 332 333 332 332 333 333 332 330 329 327 324 323 323 324 325 324 324 324 324 324 323 324 324 323 321 320 320 320 320 320 320 320 320 320 320 320 321 321 321 322 322
318 318 318 319 319 318 317 315 315 315 316 318 318 318 317 316 317 317 317 317 317 316 316 316 316 318 320 317 315 315 316 316 314 316 321 327 329 331 336 337 336 334 334 334 333 332 329 328 328 329 330 329 328 330 332 333 332 332 333 333 332 332 332 332 331 329 328 326 324 324 325 325 324 324 324 324 324 324 325 325 324 323 322 322 321 320 321 321 321 320 321 321 321 321 321 321 322
317 318 318 317 316 317 315 315 314 314 316 317 317 317 317 317 317 316 316 317 316 316 315 315 314 316 317 316 315 315 315 315 315 315 315 322 327 330 334 337 336 335 335 334 332 332 331 327 326 327 327 326 325 326 330 332 332 332 333 333 332 332 332 332 332 330 329 328 327 326 326 327 325 324 325 325 325 325 325 325 325 325 324 324 323 322 322 322 322 322 322 322 322 322 322 322 322
317 317 318 316 315 314 313 313 313 313 315 315 315 316 317 317 316 315 316 317 316 316 315 314 314 314 315 315 315 315 315 315 315 316 315 319 326 330 334 336 337 337 336 335 332 332 331 326 324 326 325 325 325 325 327 330 332 331 332 333 333 332 331 331 332 330 329 328 328 328 328 328 328 327 327 326 326 326 326 326 326 326 326 326 325 325 324 323 323 323 323 323 323 323 323 322 322
317 317 317 316 315 314 312 313 313 313 314 314 316 317 316 314 314 316 317 317 316 315 315 315 314 314 314 314 315 314 314 315 315 316 315 316 320 326 330 331 334 335 335 334 331 330 330 327 322 323 324 324 325 325 326 329 330 330 330 331 332 332 331 331 331 330 329 329 328 329 329 329 329 329 329 328 328 328 328 328 327 327 327 327 327 326 326 325 325 325 324 324 323 323 323 323 323
317 316 316 315 314 313 313 314 313 313 314 314 316 317 315 314 314 316 317 317 316 315 315 315 314 314 314 314 314 314 314 315 315 315 316 315 316 319 321 322 324 327 330 329 326 325 327 325 320 320 322 323 323 324 325 327 329 329 328 327 328 330 331 331 331 330 329 329 329 329 330 330 330 330 329 329 329 329 329 329 329 329 329 328 328 328 327 327 326 326 326 325 324 324 325 325 325
316 316 315 314 314 314 314 315 314 314 315 313 316 316 315 314 314 317 317 316 315 315 315 315 314 315 316 315 314 314 314 315 315 315 315 315 315 315 316 316 315 318 321 320 319 319 320 320 319 318 319 321 321 323 323 325 327 328 329 328 326 327 330 331 331 330 329 328 328 329 329 330 331 330 330 330 330 330 329 329 329 329 329 329 329 329 328 328 327 327 327 327 326 326 326 326 325
316 316 316 315 315 315 314 315 314 314 315 313 315 315 315 315 315 317 317 315 315 314 315 316 314 316 317 316 314 314 314 314 314 315 315 315 315 315 315 315 314 314 315 315 315 316 315 316 317 316 317 318 319 321 323 323 325 327 327 327 326 326 327 329 329 330 329 326 326 328 328 329 330 331 331 331 331 331 330 329 329 329 330 329 329 328 327 327 327 327 326 326 327 327 326 326 326
315 316 316 315 315 316 315 315 314 314 315 313 314 314 315 317 317 317 316 315 315 314 315 316 315 316 317 316 314 314 314 314 314 314 315 315 314 314 314 315 315 314 314 315 315 314 314 314 314 315 315 316 316 318 321 323 324 325 323 324 325 324 325 327 328 329 330 328 325 325 326 328 328 330 331 331 331 331 330 330 330 330 330 329 329 328 327 326 325 326 326 325 326 326 325 325 325
315 315 316 316 315 315 315 315 314 315 314 313 313 313 316 318 317 315 315 314 314 315 315 315 316 316 316 315 314 314 314 314 315 315 314 314 314 314 314 314 315 314 314 314 314 314 315 314 314 314 314 315 315 316 318 319 322 323 322 321 321 321 322 324 326 328 329 328 326 322 323 326 327 328 329 331 331 331 330 330 330 329 328 328 329 329 328 327 325 325 326 326 325 325 324 324 324
315 314 314 315 315 315 315 315 315 315 314 313 314 313 315 317 316 313 313 313 314 315 316 316 316 316 315 315 314 314 314 314 315 315 315 314 314 314 314 315 314 314 314 314 314 314 314 314 314 314 315 314 315 315 315 316 317 319 320 319 318 319 320 321 322 324 326 327 327 323 319 320 325 327 328 329 331 330 330 329 329 327 325 326 328 330 330 329 326 325 324 324 325 325 325 324 325
315 314 313 315 315 315 315 314 314 315 314 314 314 314 316 316 315 313 312 313 313 314 315 316 315 315 315 315 315 314 314 315 314 315 315 315 315 315 314 315 315 315 315 314 314 314 314 314 314 314 315 315 315 315 315 315 315 317 319 319 318 319 321 321 319 321 325 326 326 324 319 317 320 323 325 328 329 330 330 328 328 327 326 325 327 328 327 326 325 323 323 324 325 325 325 324 324
314 314 314 316 315 314 314 313 313 314 314 315 314 314 315 316 316 314 313 313 314 314 315 316 316 316 316 315 315 314 314 315 315 315 315 315 315 315 315 314 315 315 315 315 315 314 314 314 314 314 314 314 314 314 315 315 315 316 318 320 320 319 320 320 319 321 323 323 322 320 319 318 317 319 322 324 325 326 326 326 326 326 326 325 324 326 325 325 325 324 323 324 325 325 325 325 324
314 313 314 316 315 313 314 314 313 313 313 315 314 314 314 315 316 316 314 313 314 315 315 316 316 316 316 316 315 315 315 315 315 315 314 315 315 315 315 315 315 315 315 315 315 315 315 315 315 315 314 314 314 314 315 315 315 315 316 317 318 318 318 319 319 321 322 322 320 319 321 323 321 322 324 325 326 324 320 324 325 324 327 326 324 325 326 326 326 325 323 323 325 326 326 326 325
315 314 314 315 314 313 314 314 312 313 313 314 314 315 315 315 316 317 316 315 315 315 315 316 316 316 316 316 316 316 315 315 315 315 314 314 315 314 315 315 315 315 315 315 315 315 315 315 315 315 315 315 315 315 315 314 315 315 315 316 316 317 318 317 317 318 320 321 320 321 325 324 322 325 325 326 329 325 320 322 323 323 327 328 324 324 325 325 324 324 324 324 324 325 326 326 327
316 316 314 314 314 313 314 314 312 313 314 315 315 315 316 316 316 316 317 316 315 315 315 316 316 316 317 317 317 317 316 316 315 315 314 314 314 314 315 315 315 315 315 315 315 315 315 315 315 315 315 315 315 315 315 315 315 315 316 316 317 318 319 318 317 318 318 318 317 319 322 322 325 328 328 327 326 323 322 324 324 325 327 325 325 327 327 326 326 325 325 326 326 325 325 326 326
315 315 315 314 314 314 314 314 312 312 313 315 315 315 315 316 316 316 317 316 316 316 316 316 316 316 317 317 317 318 318 317 315 315 315 315 315 315 315 314 315 315 315 315 314 315 315 315 315 315 315 315 315 315 315 315 315 315 315 316 316 317 318 317 317 318 318 318 317 317 319 322 327 329 329 328 325 324 327 329 327 326 325 323 324 327 329 329 329 329 327 326 325 326 327 327 327
314 315 314 313 314 314 313 313 312 312 313 314 316 315 315 316 316 316 317 317 317 317 317 316 316 317 317 317 318 319 318 316 315 316 316 316 315 315 315 315 315 315 315 315 315 315 315 315 315 315 315 315 315 315 315 315 315 315 315 315 315 315 316 316 316 316 317 317 317 317 319 322 326 328 328 327 325 326 331 331 328 327 329 328 326 327 329 331 330 330 329 326 324 324 325 326 327
314 315 313 314 316 314 312 313 312 312 312 313 315 315 315 316 316 316 317 317 317 317 317 317 317 317 317 318 318 318 317 316 316 316 316 316 316 315 315 315 315 315 315 315 315 315 315 315 315 315 315 315 315 315 315 315 314 315 314 315 315 315 316 315 315 315 315 316 316 316 317 319 323 325 325 325 325 326 328 328 327 328 330 330 327 325 326 328 329 330 329 328 327 325 323 324 326
315 316 315 315 317 315 314 315 313 312 312 312 313 313 314 315 315 316 317 316 317 317 316 316 315 316 316 316 316 316 316 316 315 316 315 315 315 315 315 315 316 315 315 315 315 315 315 315 315 315 315 315 315 315 315 315 314 315 314 315 315 315 315 315 315 315 315 316 316 316 316 316 318 319 322 326 328 327 326 324 323 325 327 327 327 326 326 325 325 327 329 329 329 325 323 326 327
314 317 317 316 316 315 315 315 313 313 313 314 314 312 312 315 316 316 316 315 315 315 314 314 314 314 314 313 313 314 314 314 315 315 315 315 315 315 315 315 315 315 315 315 315 315 315 314 314 313 314 314 315 315 315 315 315 315 315 315 315 315 315 315 315 315 315 315 316 316 316 316 317 317 321 325 326 326 325 323 324 326 328 329 329 330 329 326 323 325 327 327 326 321 321 326 327
312 316 318 315 315 316 316 316 314 313 313 314 313 312 311 314 316 316 316 314 314 315 314 314 315 315 314 313 313 313 313 313 314 313 314 314 314 314 314 315 315 315 315 315 314 314 314 314 313 313 313 313 314 315 315 315 315 315 315 315 315 315 315 315 315 315 315 316 316 316 316 317 317 317 318 320 321 323 324 325 328 330 329 329 329 328 328 327 325 325 324 324 322 319 320 324 325
314 318 318 315 315 317 317 316 315 314 314 313 313 315 313 312 315 316 315 314 314 315 314 314 315 316 316 315 314 313 313 313 313 313 313 313 314 313 313 314 314 314 314 314 314 314 314 313 313 313 313 313 313 314 314 315 315 315 315 315 315 315 315 315 315 315 316 316 316 316 316 317 317 317 318 318 319 322 324 326 327 329 328 328 328 326 324 324 324 323 324 324 321 319 322 325 325
316 316 317 316 316 318 318 317 315 315 314 313 314 316 312 311 315 316 314 314 314 315 315 316 317 317 317 315 314 313 313 313 313 313 313 312 313 312 313 313 313 313 313 313 313 313 313 313 313 312 313 313 313 314 314 314 315 315 315 315 315 315 315 315 315 315 316 316 316 316 316 316 316 317 317 318 319 320 322 323 324 326 327 327 326 324 322 322 324 325 327 327 323 321 324 327 326
314 314 315 316 317 318 317 316 315 315 314 313 315 315 312 311 313 315 314 313 314 315 315 317 317 317 316 315 314 313 312 312 312 313 313 313 312 312 313 313 313 313 313 313 314 313 313 313 312 312 312 312 313 313 314 314 315 315 315 315 315 316 316 316 316 316 316 316 316 316 316 315 316 316 316 316 317 318 319 320 322 323 323 324 323 321 321 322 324 326 326 325 321 319 322 324 322
314 315 316 315 315 315 315 315 314 314 314 314 314 315 313 311 312 315 316 313 314 316 316 317 317 316 315 314 313 313 312 311 311 312 312 312 312 312 312 313 314 314 314 313 313 313 313 313 313 313 313 313 313 314 314 315 315 315 315 316 316 316 316 316 316 316 316 316 316 315 315 315 315 315 315 315 315 316 316 317 318 319 319 320 320 320 321 321 322 323 323 322 321 319 320 321 321
315 317 315 314 314 314 313 314 313 314 314 312 311 313 314 311 312 314 315 312 313 315 315 316 316 315 315 314 313 313 313 312 311 311 311 312 312 313 314 314 314 314 314 314 314 314 314 314 314 314 314 314 314 315 315 315 315 316 316 316 316 316 316 316 316 315 315 315 315 315 315 315 315 315 314 314 314 314 314 315 315 315 316 317 317 318 319 319 319 320 320 321 322 321 321 321 322
316 315 313 313 313 314 314 314 314 314 313 310 309 312 313 312 312 314 314 313 312 314 316 316 316 315 314 313 313 313 314 314 313 313 313 314 314 315 315 315 315 315 315 315 315 315 315 315 315 315 315 316 315 316 316 316 316 316 316 316 316 316 315 315 315 315 315 315 315 315 315 315 315 314 314 314 314 314 314 314 314 314 314 314 315 316 316 316 316 317 317 318 318 318 318 318 318
314 314 313 313 313 314 315 314 314 314 312 308 309 311 312 312 313 314 314 314 313 314 315 315 314 314 313 313 313 313 314 315 315 315 315 315 315 315 315 315 315 316 316 316 315 316 316 316 316 316 316 316 316 316 316 316 316 315 316 316 315 316 316 316 316 315 315 315 315 315 314 315 314 314 314 313 314 313 313 314 313 313 314 313 314 314 314 315 315 315 315 315 315 315 315 315 315
314 316 315 313 314 315 315 314 315 314 312 309 309 311 312 312 313 313 313 312 312 313 312 312 311 311 311 312 313 313 314 315 315 316 316 316 316 316 316 316 316 316 316 316 316 316 316 315 316 316 316 316 316 315 315 315 315 315 315 315 315 315 315 315 315 315 315 315 315 314 314 314 314 314 313 313 313 313 313 313 313 313 313 313 313 313 313 313 313 313 314 313 313 313 313 313 313
314 316 315 314 314 314 312 312 312 312 312 311 310 311 312 313 313 313 313 312 311 311 311 310 311 311 310 312 313 314 314 314 315 315 315 315 315 316 316 315 315 315 315 315 315 316 316 315 315 315 315 315 315 315 315 315 315 315 315 315 315 315 315 315 315 315 315 315 314 314 314 314 313 313 313 313 313 313 313 313 313 313 313 313 313 313 313 313 313 313 313 313 313 313 312 312 312
314 313 314 313 314 314 311 310 309 309 311 313 312 312 312 313 314 314 313 312 311 311 311 311 312 312 311 313 315 314 314 313 314 314 314 314 315 315 315 315 315 315 315 315 315 315 315 315 315 315 315 315 315 315 315 315 315 315 315 315 315 315 315 315 315 315 315 315 314 314 314 314 314 313 313 313 312 312 313 313 313 313 313 313 313 313 313 313 313 312 312 312 312 312 312 312 311
313 313 313 312 312 313 311 311 311 310 311 312 312 312 311 311 313 314 313 312 312 312 311 312 313 312 312 314 315 314 313 313 313 314 314 314 314 314 315 315 315 315 315 315 315 315 315 315 315 315 315 315 315 315 315 315 315 315 315 315 315 315 315 315 314 315 314 314 314 314 314 314 314 313 313 313 313 312 312 312 312 312 312 312 312 312 312 312 312 312 312 312 311 311 311 311 311
312 312 313 313 312 312 311 312 313 312 313 312 311 311 311 311 312 313 313 313 313 313 312 312 313 313 312 314 316 314 313 313 313 314 314 314 314 314 315 315 315 315 315 315 315 315 315 315 315 315 315 314 314 314 314 314 314 315 314 315 315 315 315 314 314 314 314 314 314 314 314 314 314 314 313 313 313 313 313 312 312 312 312 312 312 312 311 311 311 311 311 311 311 311 311 311 311
310 310 312 312 313 313 312 312 312 312 312 312 312 311 311 313 313 313 313 313 313 313 313 313 313 313 313 314 316 315 313 313 313 314 314 314 315 314 315 315 315 315 315 315 315 315 315 315 314 314 314 314 314 314 314 314 314 314 314 314 315 314 314 314 314 314 314 314 314 314 314 314 313 313 313 313 313 313 313 313 312 312 312 312 312 312 312 312 311 311 311 311 311 311 311 311 311
310 311 311 311 312 311 312 313 312 312 312 312 313 312 311 313 314 314 313 314 314 314 314 315 314 313 313 314 315 314 313 313 314 314 314 314 314 315 315 315 315 315 315 315 315 315 314 314 314 314 314 314 314 314 314 314 314 314 314 314 314 314 314 314 314 314 314 314 314 314 313 313 313 312 312 312 312 312 312 312 312 312 311 311 311 311 311 311 311 311 311 311 310 310 310 311 311
313 312 312 312 313 312 312 314 312 311 311 311 312 312 312 314 314 314 313 313 314 314 315 317 315 314 314 313 313 314 313 314 314 314 314 314 314 314 314 315 315 315 315 314 314 314 314 314 314 314 314 314 314 314 314 314 314 314 314 314 314 314 314 314 314 314 314 313 313 313 312 312 312 312 312 312 311 311 311 311 311 311 311 311 311 311 311 311 311 311 311 311 310 310 310 310 310
Wind_Speed
4 3 2 2 2 1 1 3 4 3 3 2 3 2 4 4 4 6 7 5 4 6 4 4 5 3 1 4 5 6 9 9 6 3 3 12 19 19 17 15 15 17 16 13 12 11 10 11 10 7 6 5 7 9 10 11 11 11 11 11 13 12 10 10 12 13 12 11 9 9 9 9 9 9 9 8 8 9 8 10 11 12 12 12 13 13 13 13 13 12 12 13 13 13 13 13 13
4 4 4 3 2 2 2 3 4 2 3 2 4 2 7 5 4 6 7 5 5 9 6 5 5 3 2 5 3 1 8 10 9 8 11 19 18 16 18 15 15 17 14 13 13 12 10 11 10 7 5 6 7 9 10 11 11 12 12 12 13 12 10 11 12 12 12 10 8 7 8 10 11 11 11 11 11 12 11 11 13 13 13 12 12 13 12 12 12 12 12 12 12 13 13 13 13
5 5 5 3 2 4 2 3 4 3 3 3 5 4 6 5 5 6 7 8 10 11 7 5 5 3 3 3 1 2 6 8 9 12 17 20 15 17 18 15 15 15 14 14 13 11 10 10 9 7 6 6 7 8 10 11 11 12 12 12 12 11 11 12 12 11 11 10 7 6 8 9 11 11 11 12 12 12 12 11 12 12 13 12 12 13 12 11 12 11 11 11 12 12 12 12 13
6 6 6 2 4 4 4 4 4 4 3 2 5 5 5 5 6 8 10 10 10 10 7 6 5 3 5 3 4 2 6 7 8 12 18 16 12 21 20 16 15 13 14 14 13 11 10 10 9 8 6 6 7 8 9 10 11 11 13 13 12 12 11 12 13 12 11 9 6 6 9 9 10 10 11 12 12 12 12 10 10 11 12 11 10 12 11 11 12 11 11 11 11 12 12 12 13
6 7 7 4 5 2 3 3 3 4 1 2 4 6 5 4 7 10 10 9 8 7 6 6 3 2 5 4 5 2 6 7 9 13 16 12 14 23 20 17 16 12 14 14 12 11 11 10 9 8 7 7 8 9 9 10 11 11 13 13 13 12 12 12 13 12 11 9 5 6 9 9 10 9 9 11 11 11 11 10 10 11 11 10 10 11 11 11 12 11 11 11 11 11 11 12 12
6 5 6 4 4 1 2 3 4 4 3 4 3 6 5 5 8 11 10 9 6 4 5 6 2 1 3 2 2 2 5 5 9 14 13 13 20 24 19 17 16 13 14 14 12 11 11 11 9 9 8 8 8 9 10 11 11 11 12 13 13 12 12 12 12 12 11 8 4 5 7 8 9 9 9 11 11 11 11 10 10 11 11 11 11 12 12 12 12 11 11 10 10 10 10 11 12
8 5 5 5 3 2 5 4 4 2 4 5 4 5 5 7 9 12 11 8 5 4 5 5 2 2 2 3 2 1 6 6 9 15 11 16 25 23 18 18 16 15 15 13 11 11 12 11 10 9 9 8 9 9 10 12 12 12 12 12 12 12 12 11 12 13 11 8 5 5 7 8 9 9 10 11 11 11 11 11 11 10 10 10 10 12 12 11 12 11 11 10 9 9 9 9 10
9 6 5 5 3 3 5 4 2 1 3 3 4 4 5 8 10 11 10 7 5 6 7 6 4 4 2 3 2 2 7 8 13 17 12 18 25 19 17 17 16 16 16 13 11 12 13 12 10 10 9 9 9 9 11 12 12 12 12 12 12 11 11 11 11 11 10 8 7 8 8 8 8 9 10 11 11 11 10 10 10 10 10 10 11 12 11 11 11 10 11 10 9 8 8 9 9
8 4 5 5 3 4 5 4 1 2 3 3 3 3 5 7 9 9 8 6 6 7 7 8 5 3 4 3 3 3 7 10 17 19 15 19 21 16 16 17 16 17 16 13 12 14 14 13 11 11 10 9 9 9 10 10 12 12 12 12 11 11 11 11 11 10 9 9 10 10 9 8 8 9 10 11 10 10 11 10 10 10 10 11 12 11 11 10 10 10 10 9 8 8 8 9 9
8 6 4 4 4 4 5 4 2 2 4 3 3 5 6 8 8 8 8 6 7 7 7 7 5 3 1 2 4 4 6 9 16 19 17 18 18 16 17 17 15 16 16 13 13 15 15 14 12 11 10 9 9 8 9 9 10 12 12 12 11 12 11 11 11 10 11 11 11 11 11 10 9 10 11 12 12 11 11 11 11 11 11 12 12 12 12 11 11 10 9 9 8 8 9 9 9
8 6 3 4 5 5 5 4 3 3 5 4 4 6 7 10 8 7 8 6 7 6 7 7 4 4 3 1 4 2 6 9 15 18 18 18 17 16 16 16 15 14 15 14 14 15 16 14 12 11 11 10 9 8 8 8 9 10 11 12 11 12 12 11 11 10 11 11 11 11 11 11 10 11 12 13 12 11 11 11 12 12 12 13 13 13 13 13 12 11 10 9 8 8 8 9 9
7 6 4 5 6 5 3 2 3 4 4 5 5 7 7 10 8 7 8 6 8 6 8 9 2 3 5 2 4 3 6 10 16 19 19 17 16 16 16 15 15 14 15 14 13 14 16 14 12 11 10 10 9 8 8 7 7 8 10 11 11 11 11 11 10 10 10 10 11 10 11 11 10 11 12 13 12 12 12 12 13 13 13 14 14 14 14 13 13 12 11 10 9 8 8 8 8
6 6 6 4 4 2 1 1 3 3 4 5 5 8 9 11 9 7 8 6 8 6 8 10 2 2 4 3 5 4 7 12 19 21 19 17 15 16 16 14 15 14 14 14 14 14 14 13 12 11 10 9 9 9 7 7 7 7 8 9 10 10 10 10 10 10 9 10 10 10 10 10 10 10 11 12 12 12 12 13 13 13 13 14 14 14 14 14 14 14 13 12 10 9 7 7 7
6 4 6 3 2 2 1 1 2 3 4 6 7 9 10 8 6 5 7 7 7 4 7 9 4 3 3 3 6 7 10 16 21 22 20 17 15 17 16 15 16 15 14 13 14 14 14 12 11 11 11 9 9 9 8 7 7 7 6 7 8 8 9 9 9 9 9 9 9 9 9 9 10 10 10 11 11 11 11 11 12 13 13 13 13 13 14 13 14 14 14 13 11 9 8 7 6
6 3 5 2 2 4 3 2 2 4 4 8 7 10 10 5 4 4 6 5 5 5 5 7 7 3 0 1 5 9 13 18 21 23 20 17 15 15 14 14 15 14 13 14 12 14 15 12 11 11 11 10 9 8 7 7 7 7 7 6 6 7 7 7 8 8 8 8 8 8 8 8 8 9 9 9 10 9 9 9 10 11 11 11 12 12 12 12 13 13 14 13 12 10 8 7 6
7 3 4 4 4 5 5 3 2 4 4 8 8 10 9 5 5 5 5 3 5 7 4 5 8 4 3 4 7 10 13 17 21 24 20 16 15 14 14 13 13 12 13 13 12 13 15 14 13 12 11 11 9 8 7 7 7 7 7 6 6 6 6 6 6 7 7 6 6 7 7 7 7 7 7 7 8 8 7 7 8 8 9 9 9 10 10 11 12 12 12 12 12 11 9 7 6
8 5 5 5 6 5 6 6 4 3 6 9 9 11 9 6 6 5 7 6 3 6 5 5 8 7 2 1 6 10 14 16 20 23 19 16 15 15 14 13 13 12 12 13 12 13 15 15 15 13 12 12 11 9 8 8 7 7 7 7 7 6 6 5 5 5 6 5 5 5 5 6 5 5 5 5 6 5 5 5 5 6 6 7 7 7 8 9 9 11 11 11 12 11 9 7 5
7 5 6 6 6 5 5 6 3 3 6 9 10 12 9 7 9 7 6 7 5 6 7 7 7 8 8 5 5 10 14 16 21 24 20 17 16 16 15 14 14 13 12 13 13 13 14 16 16 15 14 14 12 11 10 9 9 8 7 7 7 7 6 6 5 5 5 4 4 4 3 4 3 3 2 3 3 3 3 2 3 3 4 4 4 5 5 6 7 8 9 10 11 10 9 7 6
8 4 6 6 4 4 4 6 5 3 6 10 11 12 7 5 10 9 7 8 9 8 8 9 8 8 10 9 6 9 13 17 23 24 21 20 19 18 17 16 15 15 13 14 15 15 14 15 16 16 16 16 15 13 12 11 10 9 9 8 8 8 8 7 6 6 5 4 4 3 3 2 2 1 1 0 1 1 1 0 0 1 1 2 2 2 3 4 5 6 7 8 9 9 9 7 6
7 4 6 5 5 6 5 6 6 5 6 9 11 10 6 5 9 9 8 7 9 9 9 10 11 12 11 11 9 9 14 19 23 23 21 22 21 20 19 18 17 16 15 14 15 16 15 14 15 17 18 18 17 15 14 12 11 11 10 9 9 8 9 9 8 8 7 6 5 4 4 3 3 2 3 2 2 2 2 3 3 3 3 2 2 3 3 4 4 5 6 6 7 8 8 7 6
5 5 4 3 9 7 5 6 6 6 5 7 10 9 7 6 7 8 7 6 7 9 10 10 10 13 14 14 12 10 14 19 22 23 21 21 21 20 19 18 17 16 16 14 15 16 17 15 14 16 18 19 18 17 17 15 13 12 11 11 10 9 9 9 9 9 9 8 7 6 6 6 5 5 5 4 4 4 4 4 4 5 6 5 5 5 4 5 5 5 5 5 6 6 6 6 6
5 5 4 2 6 5 7 6 6 7 5 6 9 9 8 7 7 9 9 6 2 3 7 8 6 9 13 14 13 12 14 17 21 22 23 22 22 21 18 17 16 15 15 15 15 16 18 17 15 15 16 18 18 17 16 17 16 14 13 12 12 11 10 9 9 9 10 9 9 9 8 8 8 8 7 6 6 6 6 5 5 6 7 6 6 7 6 6 6 5 5 5 6 5 5 5 5
5 5 0 3 1 4 7 5 6 7 6 7 8 8 8 9 8 8 11 9 2 5 5 7 6 9 12 12 12 13 14 15 18 20 22 23 23 22 19 17 17 17 16 15 15 15 18 20 18 17 16 17 19 18 16 16 16 15 13 13 14 13 12 11 9 8 9 10 10 10 10 9 9 10 9 9 8 8 7 7 7 7 8 8 7 8 8 8 7 7 6 6 6 6 6 5 5
7 4 6 1 4 5 6 5 7 6 5 6 6 6 8 9 7 5 11 11 3 4 5 5 6 10 12 12 12 12 14 14 15 17 20 22 23 22 19 16 16 17 17 16 16 15 18 22 21 20 18 19 20 20 18 15 16 15 14 15 15 15 14 13 11 10 10 11 12 12 11 10 11 11 11 10 10 10 10 9 9 9 9 9 8 9 9 9 9 8 7 7 7 7 7 7 6
10 3 6 4 4 5 5 5 6 4 4 6 6 6 5 5 4 4 10 10 8 10 8 7 6 6 9 12 13 12 13 15 15 17 19 21 22 21 20 18 16 17 18 18 18 16 17 21 24 23 22 21 20 21 20 17 16 16 16 16 16 16 15 14 13 12 12 13 14 13 13 12 10 11 12 12 12 12 12 11 11 11 11 10 10 10 10 10 10 10 9 9 8 8 8 8 8
8 3 5 5 4 4 4 4 4 3 4 6 7 6 3 3 4 7 11 10 11 13 11 12 11 8 8 9 12 13 14 15 16 17 18 20 22 22 22 22 21 20 20 20 21 19 17 19 23 25 24 23 22 22 21 19 17 17 18 18 17 16 16 15 14 15 14 15 15 15 15 14 11 10 11 13 14 13 13 13 12 12 12 12 12 11 11 11 11 11 11 11 10 10 10 10 9
5 7 7 5 4 4 2 3 4 3 4 6 5 5 3 3 3 5 9 13 15 14 12 15 14 14 13 11 11 13 14 15 16 17 18 20 22 23 24 25 25 23 22 22 23 22 20 19 21 23 25 24 24 23 22 20 19 18 18 19 19 17 16 15 15 16 17 17 17 17 17 16 14 11 10 12 14 15 15 14 14 14 14 13 13 13 13 12 13 12 12 12 12 12 12 12 11
7 11 8 5 4 3 2 3 5 2 4 6 2 2 3 3 4 5 7 11 13 13 12 15 16 14 15 15 15 14 15 16 18 19 20 20 20 21 22 23 23 23 23 23 22 22 22 21 20 21 23 24 24 24 23 22 20 19 19 19 19 19 17 16 15 16 19 20 19 19 19 18 17 15 13 13 14 15 16 16 16 15 15 14 14 15 15 14 15 15 15 14 14 13 14 14 14
8 11 6 5 3 4 4 3 4 2 3 7 1 2 5 7 10 10 9 10 10 11 10 11 14 14 14 16 17 17 16 17 19 20 20 18 18 18 19 19 20 20 21 22 21 21 21 21 21 20 21 22 23 23 23 22 21 21 21 20 20 20 19 18 17 17 18 20 20 20 21 19 19 19 17 17 17 16 16 18 18 17 16 16 16 16 16 16 17 17 17 16 16 16 15 16 15
7 8 4 6 5 6 7 4 4 2 3 8 4 4 7 11 16 13 12 13 11 10 9 8 10 11 15 18 19 19 19 19 19 19 19 18 18 18 18 18 19 19 19 20 20 20 20 20 20 20 20 21 21 22 22 21 19 19 21 21 21 22 21 20 19 18 17 18 20 21 21 21 21 21 20 20 21 19 18 20 21 20 18 17 18 17 17 17 17 18 18 17 18 18 17 17 17
6 5 4 6 6 6 8 6 7 5 5 8 4 5 7 7 12 11 12 14 12 10 10 10 10 10 13 17 19 19 19 20 18 18 19 19 19 18 18 19 19 19 19 19 19 18 19 19 19 19 19 19 19 20 21 21 20 19 19 20 21 21 22 21 20 20 18 19 20 21 22 22 23 23 23 23 23 22 22 22 23 23 20 18 20 20 20 18 17 18 19 19 18 18 19 19 20
6 5 6 7 6 5 7 6 7 4 5 8 6 5 8 4 9 8 11 12 11 11 11 10 10 10 11 14 18 19 19 20 19 18 19 20 21 20 20 19 19 19 19 18 18 19 19 20 19 18 19 18 18 19 19 21 21 20 18 18 19 20 20 20 21 21 20 20 20 21 22 22 23 24 24 24 24 24 24 25 25 24 22 20 21 22 22 20 18 19 21 20 19 19 20 21 22
7 7 7 7 7 5 5 5 5 2 4 9 9 5 6 3 7 5 8 9 10 11 11 11 11 11 11 11 14 17 19 20 21 20 19 21 22 22 21 20 20 20 19 19 19 20 20 21 20 19 19 19 19 19 19 20 21 20 18 18 18 19 19 20 20 20 20 20 21 22 23 22 23 24 24 25 26 27 27 27 26 26 26 25 24 23 21 20 19 20 20 21 21 21 22 23 24
7 7 6 7 9 7 4 2 4 5 4 8 10 8 9 3 6 5 7 7 7 9 10 10 10 11 12 12 13 16 17 19 22 23 21 21 22 22 22 21 21 21 20 20 20 21 21 21 22 21 21 21 21 21 20 20 20 20 19 18 18 19 19 19 19 19 20 21 22 23 24 24 23 22 23 23 24 26 27 26 24 23 24 24 24 23 21 20 20 20 19 21 23 24 25 25 25
8 8 7 5 8 11 7 3 5 9 6 7 9 10 14 11 5 6 8 8 7 7 8 8 9 10 11 12 13 16 17 19 21 22 23 23 22 21 22 22 22 22 22 22 22 22 23 23 23 23 23 23 23 23 22 22 22 22 22 21 21 21 20 19 19 19 19 19 21 22 23 23 22 21 22 21 22 24 24 24 23 21 21 21 21 24 24 23 23 21 20 21 23 26 27 28 28
10 11 9 6 7 9 6 4 4 6 6 8 12 11 13 14 11 9 9 11 9 9 8 9 10 11 11 12 13 15 18 20 19 20 24 25 24 23 23 24 24 24 23 23 23 24 24 24 25 25 24 24 24 24 24 25 25 24 23 22 21 21 20 21 21 21 20 19 20 20 20 22 22 22 23 22 25 25 20 20 21 20 22 22 22 23 23 23 24 23 23 23 24 26 27 28 30
9 10 10 7 6 6 5 6 3 2 4 10 13 13 13 13 12 12 11 11 11 11 12 13 13 13 13 13 13 14 16 19 20 22 24 23 24 25 26 27 28 27 26 26 26 26 26 26 26 26 26 26 26 26 26 26 26 26 25 23 21 20 19 20 21 20 20 21 21 21 21 21 20 20 21 21 23 22 18 18 19 19 21 23 22 22 22 24 24 24 24 25 26 27 27 28 29
6 7 8 7 7 4 4 5 4 2 3 7 9 10 14 14 12 13 14 12 12 14 15 17 17 16 16 15 16 15 15 18 22 23 23 22 23 24 26 28 29 29 29 28 27 27 27 27 27 27 27 27 27 26 27 27 26 27 26 24 23 21 20 20 21 20 19 20 20 21 21 20 18 19 22 23 23 22 22 22 21 21 22 22 21 22 25 28 28 25 25 25 26 28 29 30 30
5 5 6 7 5 3 4 4 5 4 3 3 3 7 11 13 13 14 15 15 16 16 16 17 18 17 18 16 15 16 18 21 24 24 24 23 23 23 24 26 27 28 28 28 27 28 28 28 28 28 28 28 27 27 27 27 26 26 26 25 24 23 22 22 22 21 20 19 19 20 20 18 18 19 23 25 23 23 25 26 25 25 27 27 25 26 29 31 32 32 29 24 24 27 29 31 33
5 5 6 5 5 5 3 5 6 4 4 2 3 6 9 11 12 13 17 18 16 15 15 16 18 20 19 17 15 16 20 24 25 26 25 25 25 25 25 25 26 27 27 27 27 27 28 28 28 28 28 28 27 27 26 26 26 26 25 25 24 24 23 23 22 21 20 19 19 20 21 20 19 20 21 21 21 22 25 27 26 26 30 31 29 28 29 30 32 34 33 29 25 29 31 31 33
6 6 6 4 6 5 1 5 7 3 4 3 4 6 8 10 12 12 11 11 12 12 13 16 20 25 25 23 23 23 24 26 26 27 26 26 26 27 27 27 27 28 27 27 26 27 27 27 28 28 28 29 28 28 27 26 27 26 26 25 25 24 23 22 21 21 20 20 20 20 21 21 21 20 19 18 20 22 23 24 23 23 26 28 28 29 29 29 30 31 33 33 30 32 32 31 33
6 7 8 3 3 5 5 7 6 2 5 5 3 6 6 6 12 13 6 5 8 10 10 14 16 20 23 25 26 26 27 28 28 29 29 28 29 29 29 30 29 29 29 29 29 29 28 28 28 29 30 30 29 29 28 27 27 26 26 26 25 24 22 21 20 20 20 20 21 20 20 20 21 20 20 20 22 24 25 23 21 22 25 25 26 29 30 30 30 30 32 34 34 33 31 32 33
6 4 6 3 0 3 7 7 5 3 2 2 3 6 5 3 7 9 6 5 8 8 8 12 12 12 15 18 20 22 24 26 27 28 29 30 30 30 30 31 31 31 32 31 30 30 30 29 29 29 30 31 31 30 29 27 27 26 26 25 24 22 21 20 19 19 19 20 20 20 20 20 20 21 21 23 24 24 23 22 21 22 24 26 27 29 31 31 28 28 31 33 34 32 32 35 33
3 1 2 5 4 5 8 7 6 3 1 2 3 5 5 5 4 5 5 5 7 9 9 10 10 9 9 11 15 18 21 22 23 24 26 28 28 28 29 30 30 32 32 32 31 31 31 30 29 28 28 28 28 28 27 26 24 24 23 21 21 20 19 19 18 18 19 19 19 20 20 20 20 21 21 22 23 22 22 22 24 23 22 24 28 29 31 30 26 27 30 31 32 31 31 32 29
1 2 1 4 4 5 7 6 5 1 1 3 6 4 4 7 4 4 4 5 9 10 11 10 9 8 7 8 12 16 18 19 20 20 22 24 25 24 24 24 25 27 29 29 29 29 29 29 29 28 26 25 24 24 23 22 20 19 18 17 17 17 16 16 17 18 18 18 19 19 19 19 20 20 21 21 22 23 23 25 26 28 28 28 30 31 29 28 27 28 31 32 31 30 29 29 28
3 3 3 5 3 2 4 5 4 2 4 7 6 7 5 6 5 5 4 5 9 9 8 8 8 6 5 5 9 12 14 16 17 19 22 22 22 20 19 19 20 21 22 22 22 22 23 24 25 25 23 22 20 20 19 17 17 16 15 15 14 14 14 15 16 17 17 17 17 17 17 19 19 20 20 21 22 24 24 26 26 28 31 31 32 31 29 29 29 30 32 33 33 32 31 30 31
8 7 6 6 3 3 2 3 2 4 6 5 3 3 4 5 5 5 3 2 4 5 5 6 6 6 4 3 6 8 10 12 14 17 20 20 19 18 17 16 16 16 16 17 16 17 17 18 18 18 17 17 16 16 15 15 15 14 13 12 12 12 13 14 14 14 14 15 16 16 17 18 19 19 20 20 22 23 25 26 27 28 29 30 30 29 28 29 31 32 32 32 32 32 32 31 31
6 5 6 5 3 3 3 3 3 6 6 1 2 1 3 6 5 2 1 2 2 2 4 6 6 6 4 2 2 5 7 9 11 14 16 17 18 18 17 16 15 15 15 15 15 15 15 15 15 14 14 14 13 13 13 13 12 10 10 9 9 10 10 11 11 12 12 14 14 15 16 17 18 18 19 19 20 22 24 26 27 28 29 29 29 29 29 30 31 31 31 31 31 32 32 32 33
3 5 8 5 4 4 5 5 5 6 3 2 1 0 3 7 8 6 5 3 3 2 1 4 6 5 4 2 1 3 6 8 10 13 15 17 18 18 18 17 17 16 16 16 16 16 16 16 16 15 15 14 13 12 11 10 9 7 6 5 5 5 6 7 8 9 10 12 13 14 15 16 17 18 18 19 19 21 23 25 26 27 28 28 28 28 28 29 30 30 31 32 32 33 34 35 36
7 8 8 7 6 5 6 6 5 6 1 2 1 1 3 6 7 9 9 4 5 6 3 4 6 5 3 2 2 4 8 10 13 15 18 19 20 19 19 19 18 18 18 19 18 19 18 18 17 16 15 14 13 12 10 9 8 6 5 3 2 2 3 4 6 7 9 10 12 13 14 15 16 17 18 18 19 20 22 23 23 24 25 26 26 26 26 26 27 28 29 30 32 33 34 34 35
7 4 4 6 6 5 5 5 5 4 2 1 2 2 5 4 0 2 2 2 4 8 7 4 4 4 2 3 6 6 9 13 16 18 20 21 21 21 21 21 21 21 21 21 20 20 19 19 18 17 16 15 13 12 10 9 7 6 4 2 1 1 3 4 5 7 8 9 10 11 12 13 15 16 17 18 19 20 21 21 21 21 21 22 22 23 23 23 23 24 25 27 29 31 31 31 31
3 1 2 5 4 1 1 1 1 1 1 2 4 3 5 3 2 3 5 4 4 7 8 6 4 4 3 5 7 8 10 15 18 20 21 22 23 23 23 23 23 23 23 22 22 22 21 20 19 17 16 14 13 11 9 8 6 4 3 1 0 2 3 4 6 7 8 9 9 10 11 11 13 14 16 17 18 19 19 20 19 19 18 19 19 20 20 20 21 22 23 24 26 28 29 29 29
2 2 3 2 1 2 2 1 2 0 4 3 5 4 5 4 6 5 6 6 6 7 7 7 6 6 5 6 8 10 14 18 21 22 24 25 25 25 25 25 25 24 24 24 23 22 21 19 18 16 15 13 12 10 8 7 5 3 2 1 2 3 4 5 6 7 8 9 9 10 10 10 11 11 13 14 16 17 17 18 18 18 18 18 18 19 19 20 21 22 23 24 25 26 28 28 28
2 3 4 2 1 1 1 2 1 2 5 3 4 6 6 4 4 2 5 6 8 8 7 7 8 8 7 8 11 15 18 21 23 24 25 25 25 25 25 25 25 25 24 23 21 20 18 17 16 14 13 11 10 8 6 5 4 3 3 3 4 4 5 6 7 8 8 9 9 9 9 9 9 10 10 11 12 12 13 14 14 15 17 17 18 19 20 20 21 22 22 23 24 25 26 27 26
0 2 1 2 2 3 3 3 3 4 6 4 5 7 6 5 4 2 5 8 9 9 9 9 10 10 10 11 14 18 21 23 24 25 26 25 25 25 24 24 24 23 22 20 19 18 16 15 14 12 11 9 8 7 5 4 4 4 4 5 5 6 6 7 8 8 9 9 9 9 9 9 9 8 8 8 9 9 9 10 10 11 12 13 14 15 16 17 18 19 20 21 22 23 25 25 25
0 2 1 0 1 3 3 4 4 4 5 5 4 5 4 6 7 7 7 9 10 13 12 10 11 13 14 15 17 21 24 25 25 26 26 26 25 25 24 23 22 20 19 18 17 16 14 13 12 11 9 8 7 6 5 4 4 5 5 6 6 7 8 8 8 9 9 9 9 9 8 8 7 7 7 7 7 8 8 8 9 9 9 10 11 12 13 14 15 16 17 18 19 20 22 23 23
4 4 5 4 2 1 1 3 3 3 5 6 5 5 4 3 6 9 10 7 8 12 12 9 10 14 16 18 22 26 27 27 27 28 27 26 25 24 23 22 20 19 18 17 17 15 13 12 11 10 8 7 6 6 5 5 5 5 6 6 7 8 8 9 9 9 9 8 8 7 6 5 5 6 7 7 7 8 8 8 8 9 9 10 10 11 12 14 14 15 16 17 18 19 20 22 22
4 5 7 7 6 3 3 4 3 1 3 4 4 5 3 1 2 5 6 2 1 3 6 7 10 13 16 21 26 29 30 30 30 29 28 26 25 23 22 21 20 20 19 17 16 15 13 12 10 9 8 7 7 6 6 6 6 7 7 7 8 8 8 8 8 8 7 6 5 4 3 4 5 6 7 7 8 8 9 9 9 10 11 11 12 13 14 15 16 17 17 18 19 21 22 23 24
Wind_Direction
185 173 130 115 111 119 256 270 260 198 252 258 113 141 117 78 103 131 131 135 139 120 80 98 131 129 89 351 5 30 32 18 11 13 101 129 143 161 164 153 161 165 157 149 146 144 142 131 129 127 100 66 52 46 47 55 64 74 80 91 97 93 86 92 96 93 94 85 76 76 76 69 66 69 67 73 84 86 78 72 72 77 85 81 80 78 75 76 76 79 80 80 82 84 86 88 90
177 161 136 120 142 248 251 245 268 178 222 188 124 100 109 121 162 153 143 127 100 117 121 128 151 164 334 336 310 2 57 48 51 76 115 135 142 161 164 156 159 162 158 147 140 141 141 136 134 125 96 71 57 50 51 57 64 73 80 91 96 92 87 89 93 89 87 81 72 69 63 59 61 66 72 78 82 84 79 74 74 78 79 77 80 76 73 74 74 76 79 81 83 85 86 88 89
169 157 138 130 185 252 259 225 263 219 216 169 120 99 123 155 160 127 108 90 94 124 128 129 162 179 246 272 312 357 80 72 79 103 129 137 145 161 159 154 154 156 155 145 139 142 147 145 137 121 99 78 66 57 55 60 66 72 80 90 93 91 92 96 98 89 82 80 68 57 60 59 59 65 78 83 83 83 84 83 81 82 82 79 78 75 72 73 74 75 78 82 85 88 88 86 86
166 165 145 166 221 228 241 224 266 255 226 141 117 122 150 161 131 96 86 89 106 136 137 149 174 197 251 317 2 15 98 98 106 123 138 139 159 163 155 153 150 148 151 145 140 146 155 150 136 122 106 92 77 65 61 63 68 72 76 83 92 96 98 101 103 98 89 85 69 63 68 63 66 74 81 86 87 86 85 86 83 83 87 86 79 72 72 73 73 73 77 81 87 91 89 88 88
162 165 154 197 246 218 250 252 270 255 286 43 111 129 152 137 121 104 96 102 116 146 157 177 171 171 238 310 334 12 94 119 136 132 135 146 173 163 152 152 151 148 150 146 143 151 161 153 137 128 115 101 84 72 67 67 71 74 75 76 85 95 101 101 101 102 98 94 83 70 68 65 77 85 81 86 92 90 86 83 79 81 85 84 77 73 73 73 72 73 77 81 85 88 90 91 92
150 165 167 204 267 332 252 235 229 223 27 4 72 112 140 127 124 119 113 110 112 144 170 191 180 124 192 215 304 25 116 135 145 138 134 157 168 161 151 149 152 151 152 148 146 155 162 155 140 131 119 106 90 79 71 70 74 76 77 74 76 85 94 100 104 103 99 98 96 63 59 65 79 86 85 86 90 89 88 85 81 82 82 79 74 73 73 71 69 70 74 79 82 83 86 89 92
151 169 176 198 230 227 247 231 236 194 50 4 49 89 132 131 132 130 131 131 130 154 179 182 193 231 144 151 181 188 166 134 145 151 153 165 161 162 153 148 154 155 155 149 148 159 164 155 143 133 121 110 96 86 75 71 76 79 80 78 77 80 84 95 107 109 109 110 103 74 64 67 73 83 87 87 90 90 88 86 83 83 84 83 75 73 74 71 69 68 72 79 82 82 84 86 92
162 176 186 207 198 199 253 242 259 48 64 41 69 66 110 137 148 146 153 157 157 162 179 170 198 239 106 121 150 169 193 171 167 163 163 165 160 162 152 150 158 157 154 151 156 164 164 158 148 137 126 116 104 94 83 77 78 82 84 86 83 81 82 89 101 110 117 113 93 81 73 67 72 82 85 85 89 91 92 93 92 86 84 84 78 76 76 72 71 69 73 80 83 83 85 87 91
178 206 199 213 217 196 243 238 211 78 102 113 114 99 117 152 159 157 162 151 149 155 166 169 198 247 95 137 108 104 212 203 182 171 163 163 160 158 152 155 161 161 156 154 165 168 166 161 156 145 135 125 114 103 94 85 82 85 86 89 87 83 82 82 88 92 96 92 81 77 72 73 81 86 86 85 85 87 92 97 95 87 82 82 78 74 71 70 71 70 72 79 82 81 83 86 92
196 217 217 218 225 203 224 225 175 110 119 122 120 130 148 165 168 168 165 145 150 151 144 156 198 247 45 143 117 121 208 201 189 179 166 162 160 156 154 160 166 165 160 160 166 171 171 164 163 154 143 136 125 115 104 94 85 84 84 86 85 83 81 78 78 76 78 78 76 75 74 80 87 90 90 88 84 84 87 89 88 87 84 80 76 72 68 67 67 69 71 75 78 78 78 83 90
202 204 234 226 215 214 218 203 165 124 121 142 132 135 156 165 171 170 161 140 152 152 141 164 197 214 246 140 120 181 210 192 188 179 167 164 161 157 156 164 170 168 168 168 165 171 173 167 169 161 150 145 136 127 114 105 93 87 86 84 83 82 80 78 75 74 75 75 76 77 78 80 86 91 91 90 86 85 87 87 86 84 82 78 76 73 67 63 61 63 67 71 73 75 79 83 87
214 183 200 217 215 220 212 192 156 128 132 161 145 142 158 165 171 169 167 148 159 166 161 182 180 179 222 161 127 204 206 187 185 179 170 166 162 158 158 172 172 171 182 173 164 173 174 171 172 167 160 153 148 141 127 119 107 97 94 90 88 85 82 81 78 77 77 77 77 78 79 80 85 91 92 92 88 86 88 87 85 84 82 79 75 70 65 60 56 56 58 62 68 72 80 85 89
231 182 197 216 224 223 150 185 135 136 167 153 125 142 158 167 176 177 175 159 170 175 159 177 157 193 223 113 133 183 184 183 186 183 173 165 167 162 159 177 174 175 190 174 169 173 171 176 176 175 171 163 161 154 146 139 130 120 109 103 99 94 91 87 84 82 82 82 81 82 82 82 87 92 93 93 89 86 86 85 85 85 82 77 71 66 61 57 53 51 52 54 58 64 73 84 92
232 201 218 210 211 226 163 207 162 194 174 116 105 141 159 171 179 179 179 172 171 153 137 167 182 213 215 138 154 163 172 184 188 186 177 169 174 170 163 176 174 178 190 177 177 173 169 180 180 183 178 173 173 164 164 161 156 149 135 122 112 105 100 94 90 86 85 87 85 86 86 86 90 94 94 93 90 85 84 82 82 82 78 72 67 63 58 54 51 48 50 52 54 55 61 73 85
226 245 242 209 182 202 197 219 196 220 154 113 124 149 158 166 169 179 195 184 138 140 144 173 196 204 319 95 130 144 176 190 189 186 179 173 178 176 168 175 176 182 188 178 183 176 173 182 185 191 185 178 180 177 178 177 177 170 160 147 132 121 113 105 101 95 90 90 89 91 91 92 94 96 96 93 92 88 85 82 77 76 73 69 63 59 55 50 48 46 47 50 53 53 54 59 65
219 243 237 211 202 200 188 184 191 225 135 119 138 156 164 161 172 189 200 176 118 163 175 167 194 198 36 61 118 146 183 195 191 185 180 175 177 181 176 177 180 186 188 180 185 181 177 182 187 194 190 183 184 188 192 193 192 185 180 170 160 150 136 126 117 111 104 99 97 99 97 99 99 99 100 96 95 92 88 82 78 74 68 65 58 53 50 46 43 42 43 46 51 52 52 54 54
216 233 226 206 207 199 177 181 178 165 117 122 146 169 173 155 176 202 194 191 155 167 173 169 193 204 213 148 168 178 191 198 191 183 180 178 178 183 182 181 183 187 189 185 187 186 183 185 186 190 193 191 190 192 199 204 202 200 197 189 186 180 165 156 143 133 125 115 108 105 103 104 104 103 104 103 102 99 91 80 79 76 68 62 52 46 41 40 38 36 36 38 45 49 50 52 54
207 217 213 209 208 187 171 175 154 123 126 138 163 181 186 160 173 194 190 196 197 176 180 195 197 207 223 226 217 209 200 194 189 186 183 183 183 185 185 184 188 189 190 189 190 190 188 190 188 190 195 195 195 195 202 208 208 211 209 206 206 202 194 184 176 166 152 140 127 116 111 108 109 113 113 113 114 112 104 85 73 69 68 61 45 33 27 29 27 27 27 27 34 42 44 46 50
211 222 210 218 200 133 129 145 118 92 127 145 166 184 196 164 164 183 200 193 192 197 190 193 188 196 217 216 217 216 200 190 189 191 189 189 189 188 189 189 190 191 193 193 193 193 191 194 191 193 198 196 198 199 204 211 212 213 212 217 220 218 212 205 203 195 187 176 159 148 135 136 151 158 188 196 168 154 161 226 322 336 17 35 21 3 358 6 11 12 17 17 19 26 32 34 37
221 230 221 206 141 102 107 134 117 93 113 149 166 174 184 157 155 178 210 196 189 210 194 187 192 190 203 208 209 206 194 193 193 194 194 195 194 192 193 195 196 194 196 197 197 196 195 196 195 199 202 198 199 202 206 209 212 213 210 217 227 228 221 215 216 213 210 204 193 185 183 199 210 220 234 250 259 250 247 253 270 281 286 291 291 299 311 330 347 351 358 5 5 11 19 18 15
207 210 248 159 140 128 126 127 122 120 121 152 156 164 179 164 164 184 212 209 196 218 202 190 198 187 192 202 204 202 194 195 196 196 197 199 199 198 198 201 202 197 198 201 200 200 200 199 197 201 205 202 202 205 207 207 209 210 209 216 225 231 230 222 219 219 220 217 212 208 208 213 220 231 236 246 256 261 264 260 267 274 280 285 285 287 294 311 320 327 336 345 351 358 2 1 359
205 206 325 55 152 145 131 127 138 147 144 154 153 168 173 159 180 198 215 230 180 172 181 184 191 168 181 200 206 203 198 199 202 201 200 202 204 202 202 206 205 202 202 204 204 206 206 205 204 204 206 207 208 209 210 210 211 210 211 214 217 226 235 229 218 219 225 225 223 222 223 221 225 235 237 243 251 260 268 270 271 272 281 286 288 293 297 303 304 310 318 323 331 334 333 335 339
230 207 226 18 40 103 123 136 156 152 155 166 161 163 156 167 193 202 221 239 81 102 156 183 192 173 182 204 211 209 207 206 208 210 208 207 209 206 204 206 209 209 207 207 206 208 211 210 212 213 210 213 216 215 215 216 216 214 214 217 216 218 226 229 222 218 225 229 230 232 234 229 230 239 241 242 247 253 261 267 272 273 277 282 284 288 292 296 298 299 302 306 308 308 306 303 309
248 215 159 112 31 92 123 148 162 149 155 162 157 163 167 190 195 190 225 235 226 208 194 180 185 184 199 212 212 215 218 219 218 217 215 212 213 211 207 206 211 210 208 211 210 208 215 216 216 218 217 219 222 221 221 221 221 218 217 223 223 219 221 227 227 224 229 235 236 236 240 237 233 240 245 247 248 250 254 257 264 269 272 277 279 280 282 287 288 290 290 290 289 287 288 285 287
239 238 135 132 56 96 124 145 161 157 168 159 163 175 170 200 202 210 228 221 220 233 219 196 186 173 194 207 210 213 216 223 224 220 218 215 215 213 210 209 209 209 209 212 215 212 216 221 221 221 223 223 224 226 225 224 226 225 222 225 227 225 224 226 229 232 234 240 241 238 241 241 235 238 244 249 252 253 255 256 258 263 267 270 273 274 276 279 280 282 280 279 280 279 280 279 281
217 188 109 126 86 95 118 128 147 162 174 162 171 174 144 190 228 243 228 210 214 228 230 225 223 217 207 202 208 213 215 221 223 224 224 220 218 216 215 215 213 214 215 216 220 216 213 220 223 223 225 226 227 229 229 228 231 232 229 229 230 231 230 228 232 237 238 241 244 243 244 244 238 236 241 245 250 255 257 259 259 259 263 266 267 270 271 274 276 277 276 276 278 277 278 277 277
157 133 105 110 88 97 118 120 142 148 159 172 184 167 134 164 216 240 207 207 225 228 230 233 231 231 229 221 214 213 218 222 224 226 226 224 221 219 220 222 221 220 221 224 227 223 218 223 227 225 226 228 229 231 232 232 233 236 237 237 236 235 234 232 234 238 241 242 245 247 247 246 244 239 238 243 246 251 256 260 261 261 264 266 268 269 270 273 274 274 275 276 277 277 279 280 278
135 135 109 104 96 117 134 127 156 162 158 182 211 153 145 148 207 239 190 199 222 220 222 232 233 230 228 227 222 218 219 222 225 226 227 227 225 224 224 226 227 225 225 229 232 230 227 229 233 231 228 229 231 233 235 235 236 238 240 241 241 239 235 234 235 237 243 245 245 248 249 249 249 246 243 245 249 253 258 262 264 263 265 267 270 272 273 274 273 274 274 274 276 276 277 280 281
154 160 144 143 159 174 168 136 166 225 181 175 187 215 208 202 216 227 204 200 204 198 205 223 231 225 221 225 223 221 220 222 226 226 228 229 227 227 227 228 231 229 228 231 232 232 232 233 236 237 234 233 232 234 236 238 239 240 241 243 245 244 240 237 238 238 243 247 245 245 250 250 249 249 248 249 254 257 259 262 264 264 264 264 266 270 273 273 273 274 273 272 273 274 276 279 281
168 189 203 168 196 203 172 153 172 224 174 169 189 246 232 214 209 205 199 207 202 197 202 208 221 218 219 226 225 223 222 224 227 226 227 227 225 222 222 226 228 229 229 230 231 232 234 235 236 238 239 239 236 235 237 239 240 241 244 245 246 248 245 240 240 240 241 246 247 246 247 249 250 249 249 252 256 257 256 259 261 262 261 262 264 267 270 269 269 271 270 271 271 271 271 274 276
176 188 221 193 211 187 151 154 173 185 167 171 205 250 254 210 180 183 198 207 202 208 219 213 212 213 221 228 227 226 225 226 227 226 226 225 225 221 219 222 223 226 228 229 232 234 237 238 238 239 242 244 242 239 239 240 241 244 247 247 247 248 248 244 243 242 242 245 250 250 247 247 249 250 250 252 255 256 256 258 261 261 259 260 264 267 268 265 266 269 268 268 269 268 266 267 270
185 184 206 206 216 163 138 155 174 191 164 178 210 236 253 207 136 166 201 205 207 218 225 217 211 211 219 228 230 229 229 229 228 226 225 223 224 223 220 220 222 223 225 229 231 233 237 240 239 240 242 243 244 243 242 242 243 244 246 248 248 249 248 248 247 246 245 246 249 253 253 249 246 248 250 251 252 254 255 257 259 263 264 263 263 265 265 262 266 272 268 266 268 269 268 266 266
196 204 208 195 207 182 145 158 178 201 153 190 221 251 254 181 116 168 202 199 209 219 225 221 218 217 216 222 229 230 230 232 231 226 224 224 223 224 223 222 223 224 225 228 231 232 235 239 239 239 241 242 244 246 245 244 244 244 245 248 249 248 247 248 250 248 245 246 248 253 258 256 250 248 250 252 252 251 252 254 256 260 265 266 263 261 262 261 264 270 267 266 267 269 271 268 266
192 208 220 188 200 206 174 146 168 183 191 208 218 243 256 222 117 162 192 189 198 215 227 226 224 224 220 220 225 229 230 232 234 229 225 226 225 225 227 225 225 227 227 229 231 233 235 239 240 239 241 243 244 246 247 248 248 245 244 245 247 248 248 248 249 248 248 248 249 253 258 260 257 253 253 255 255 253 251 253 254 256 262 266 262 257 258 259 261 268 270 270 269 266 268 269 267
189 194 213 186 197 214 205 166 158 176 206 225 210 223 247 248 196 166 175 183 198 221 230 235 234 227 221 221 226 230 232 232 235 233 230 230 228 227 228 227 226 227 228 230 231 234 236 237 240 239 239 242 244 246 248 250 250 247 246 245 246 249 249 248 247 247 249 251 254 257 257 258 261 260 258 259 262 261 255 252 253 253 259 266 264 257 256 257 260 266 270 271 270 264 264 267 269
195 191 209 207 201 213 194 108 130 182 204 219 220 227 240 245 234 212 194 189 208 237 242 247 245 235 229 225 226 229 232 234 233 232 232 232 233 231 230 229 227 227 230 232 232 234 235 236 237 238 237 239 243 245 246 248 249 249 249 247 246 247 249 251 252 250 249 251 255 256 254 256 260 262 262 260 258 260 257 254 254 254 258 263 264 260 257 258 260 263 265 269 270 266 264 266 270
205 198 212 221 214 208 161 104 106 197 219 220 226 237 245 249 245 239 225 203 209 233 243 250 247 241 236 229 228 228 232 236 235 233 234 236 238 236 233 231 230 231 232 234 234 234 234 236 237 237 237 238 240 242 244 246 249 251 251 250 250 250 251 255 257 257 255 256 257 255 255 258 258 260 265 261 252 257 265 265 263 261 258 257 259 262 263 263 265 264 263 265 267 268 269 269 270
217 211 209 219 222 200 115 104 120 140 236 232 224 242 251 253 254 250 242 228 225 227 233 244 245 242 239 234 233 231 233 239 241 241 240 240 240 237 235 233 232 233 233 233 233 234 234 236 237 238 238 239 239 241 243 246 248 251 252 253 255 255 255 256 257 258 259 260 260 258 258 257 253 254 261 262 259 267 274 272 271 269 263 260 259 261 265 268 270 266 261 265 268 268 271 272 272
231 225 216 225 210 155 109 116 127 143 223 235 214 252 258 256 256 252 244 241 240 234 231 236 238 239 239 236 235 234 239 245 246 246 244 242 240 238 236 233 232 233 233 232 231 232 234 235 236 238 239 240 240 241 243 246 248 250 252 253 254 256 256 257 259 258 257 259 261 261 258 253 249 248 254 260 264 268 268 267 268 267 264 265 268 268 268 271 273 270 263 266 276 275 272 271 272
232 225 224 221 171 170 202 159 143 160 222 287 321 283 269 259 254 250 241 237 237 233 227 225 227 232 234 232 232 233 239 244 245 245 244 242 241 239 236 234 232 232 231 230 229 231 234 235 237 238 240 241 242 242 243 245 247 249 250 251 251 252 254 257 260 262 262 262 262 260 258 255 251 249 251 260 266 264 260 260 261 262 260 263 270 270 268 268 272 275 269 263 275 283 277 274 276
227 226 233 223 167 173 41 125 145 167 213 252 298 286 271 248 239 242 231 222 228 226 223 226 230 236 239 240 241 240 241 244 245 245 245 243 241 238 236 234 233 232 232 232 232 235 238 239 240 240 241 242 242 242 242 243 245 247 248 249 249 249 251 255 259 264 266 267 265 262 260 259 257 254 250 253 262 263 260 260 261 262 262 265 268 267 267 268 268 274 273 264 270 279 279 282 284
221 219 229 248 180 157 105 126 155 207 218 201 223 259 269 228 222 230 204 180 218 214 218 230 230 234 241 244 247 247 247 247 247 247 247 246 243 239 237 236 235 235 235 236 237 240 242 242 242 242 241 242 242 241 241 242 243 246 247 249 250 251 252 255 259 263 266 267 267 266 264 261 260 256 250 246 252 257 260 264 267 267 267 268 268 266 269 274 269 269 272 270 272 276 278 281 284
223 217 219 211 214 154 139 157 187 234 230 152 194 242 261 217 208 213 189 190 216 199 208 225 216 215 228 237 243 246 247 248 247 246 246 246 245 242 240 238 237 238 238 238 239 239 240 240 240 240 241 241 241 241 241 242 243 245 247 249 251 252 252 253 256 260 262 262 264 266 264 262 261 259 256 252 251 253 255 259 263 266 266 266 267 267 267 270 269 270 273 274 274 273 272 275 278
224 11 230 181 186 191 167 179 213 242 50 118 198 240 266 260 221 161 160 210 226 211 211 214 206 203 211 226 237 242 246 247 245 244 243 243 243 240 238 238 237 237 238 238 236 235 235 236 236 236 237 238 239 239 241 242 243 245 247 248 248 247 248 251 255 257 259 261 261 263 263 262 261 259 258 255 253 252 252 251 250 253 256 260 265 268 268 268 271 275 276 274 273 269 269 274 277
228 25 307 158 171 198 184 199 222 238 329 223 197 191 248 258 233 144 158 232 239 229 214 198 194 198 201 223 239 245 248 247 244 240 238 237 236 235 234 236 235 234 235 235 234 232 231 231 231 232 234 236 237 237 239 240 241 241 241 241 242 243 246 250 254 257 259 261 261 262 263 263 262 260 259 257 256 255 254 251 249 249 250 254 259 262 266 269 272 274 273 272 271 268 268 273 275
151 146 102 94 105 150 177 216 220 185 246 244 192 179 234 264 242 196 178 227 238 234 208 178 177 182 189 224 245 252 251 248 242 234 232 231 229 227 226 227 228 227 227 227 225 223 222 222 224 227 230 233 234 234 235 233 232 232 232 235 237 241 245 248 251 256 259 263 266 266 267 266 265 264 262 260 259 258 257 255 252 252 252 253 256 257 260 263 263 264 267 270 270 267 266 270 273
141 153 120 103 119 131 167 222 222 221 235 238 152 166 244 272 252 217 190 233 245 228 189 160 164 169 175 219 246 253 249 245 237 226 225 224 216 211 212 213 213 210 207 206 204 201 202 205 210 214 219 222 222 221 220 219 219 222 225 230 234 238 243 248 254 260 264 268 271 271 271 271 272 272 270 268 265 263 261 259 257 255 254 254 255 255 257 258 259 261 264 269 271 270 271 273 275
154 164 146 134 139 149 197 195 197 236 234 190 72 38 244 242 242 208 93 10 324 260 206 176 169 161 154 165 232 241 232 224 218 212 210 205 196 193 197 198 193 188 185 183 182 183 184 187 191 194 196 198 200 200 203 206 208 212 218 225 231 238 246 256 266 273 276 277 278 276 275 277 279 280 279 276 274 270 266 265 263 260 258 257 256 256 257 258 259 261 263 265 269 271 273 274 273
202 184 168 179 183 177 212 203 200 231 227 103 99 312 241 245 248 246 268 272 205 237 253 159 155 145 133 122 114 210 198 184 183 186 184 180 179 179 181 180 176 173 170 170 171 171 172 173 174 177 178 179 182 183 185 185 185 188 195 207 221 239 256 271 282 287 288 288 289 288 285 286 286 286 284 282 278 274 271 270 269 267 265 263 262 262 261 262 263 264 265 266 267 269 270 271 272
198 192 186 199 192 185 208 204 208 225 205 87 178 220 253 261 259 249 261 258 170 161 126 112 125 123 115 138 166 174 172 167 166 168 168 167 168 168 167 166 164 163 163 162 163 163 164 165 165 166 166 164 162 159 156 153 153 154 157 168 198 248 274 286 292 295 297 297 297 298 297 297 296 295 293 290 284 279 277 275 273 272 272 271 270 269 268 268 268 269 271 272 273 273 273 274 276
196 204 207 213 208 209 211 205 212 203 119 112 189 207 232 236 136 180 212 56 125 153 158 151 141 139 131 164 172 162 161 163 160 160 162 162 162 161 160 161 160 160 159 159 158 158 157 156 154 152 149 146 143 140 138 138 137 135 134 136 162 287 296 299 301 301 305 306 305 305 305 303 303 302 300 296 291 287 282 280 278 276 276 276 277 277 277 277 276 276 276 276 277 278 279 279 279
187 345 236 229 233 218 186 204 198 153 73 169 187 235 247 252 287 202 160 136 152 164 173 188 187 179 170 165 165 158 158 159 156 156 158 157 157 158 158 158 158 156 156 154 152 151 149 147 144 142 140 137 136 136 135 134 132 130 129 129 261 305 306 303 306 308 311 314 314 314 312 310 308 306 305 302 298 295 290 287 285 281 278 277 277 278 279 279 278 277 275 274 274 276 278 280 280
162 178 198 216 354 69 128 162 92 60 272 209 170 235 256 266 272 232 162 162 173 171 180 185 183 189 185 169 167 166 162 158 155 154 154 154 155 155 155 154 153 152 151 149 147 145 144 143 141 139 139 138 138 138 138 139 141 149 166 208 257 278 289 295 301 305 309 312 314 315 314 314 315 316 315 313 309 304 300 296 291 287 284 281 280 281 281 280 280 279 278 277 278 278 279 282 283
137 182 178 143 28 32 169 234 168 194 249 224 170 222 239 240 248 162 144 181 180 175 186 177 170 182 186 176 174 173 166 161 158 155 154 154 154 153 153 152 151 149 149 147 145 145 143 143 142 141 140 140 140 141 144 154 168 187 212 236 251 266 278 288 294 297 301 304 304 306 308 313 320 324 324 322 319 316 311 306 301 297 294 291 291 290 289 288 287 287 287 286 287 287 286 287 288
355 255 213 135 214 214 191 218 222 211 236 243 206 216 233 233 225 171 170 189 184 183 190 185 175 176 182 179 175 175 172 166 162 159 156 156 155 155 154 153 152 151 150 148 148 148 147 146 145 144 144 144 146 153 161 175 198 219 235 247 256 268 278 284 289 291 293 295 297 300 304 309 315 320 324 326 325 324 322 320 317 312 309 305 302 300 298 298 296 295 295 294 295 294 293 295 295
345 290 250 86 261 231 200 210 230 233 237 247 224 204 223 223 220 228 212 192 190 191 192 194 187 179 181 179 174 177 176 170 164 161 160 160 160 160 159 158 157 155 154 154 155 154 152 151 150 150 152 153 158 169 183 200 220 234 245 258 266 275 281 283 285 287 290 292 294 297 300 306 314 321 329 336 336 335 334 332 331 328 325 321 317 314 311 309 309 308 308 306 305 303 302 304 304
181 194 184 185 202 221 263 236 232 245 240 245 245 236 239 202 201 225 225 209 197 193 191 190 181 174 177 179 180 180 177 172 168 166 166 165 165 164 163 162 162 162 162 162 162 161 158 157 158 160 162 168 177 188 201 216 231 242 253 263 270 275 278 279 280 282 285 286 285 291 301 315 333 343 347 350 350 348 345 342 340 339 337 334 330 327 324 322 322 321 319 317 315 313 311 311 311
192 201 192 196 189 165 211 219 191 223 244 246 262 263 259 114 155 229 223 187 89 181 187 172 166 171 176 181 184 183 178 176 174 171 171 170 170 170 169 168 169 170 170 169 167 167 166 167 169 172 176 182 190 200 210 222 233 241 250 257 262 267 268 269 271 270 269 271 276 298 328 345 351 353 353 353 351 350 349 346 345 342 341 339 335 333 330 327 326 323 322 320 317 315 314 313 313